Wind_Speed
17 17 17 16 15 15 15 16 16 16 16 16 17 17 17 17 17 18 19 18 18 18 18 18 18 18 19 20 21 22 23 23 23 24 25 26 26 26 27 27 28 28 28
17 17 17 17 16 16 17 17 17 16 17 18 18 18 18 19 19 19 20 19 19 18 18 19 19 20 20 20 21 22 23 24 25 25 26 26 27 28 28 28 28 28 28
18 18 18 18 18 18 18 18 18 18 18 19 19 19 19 19 20 20 20 20 20 20 20 20 21 21 21 22 22 22 23 24 25 26 27 27 27 28 29 29 29 29 29
19 18 19 19 19 19 19 19 19 19 19 20 21 21 21 20 21 21 21 20 21 21 21 21 22 22 21 22 23 23 24 25 25 26 27 27 27 27 28 29 29 30 29
19 19 19 20 20 20 20 20 20 20 20 21 21 21 21 22 22 22 21 21 22 22 22 22 22 23 23 23 23 24 25 25 26 27 27 27 28 28 29 29 29 30 31
20 20 20 20 20 20 20 21 21 21 21 21 22 22 23 22 23 22 22 22 22 22 22 22 22 23 23 24 24 24 25 26 26 26 26 26 27 27 28 28 28 29 30
21 20 21 21 22 22 22 22 22 22 22 22 23 23 22 22 22 22 21 21 21 21 22 22 23 23 23 24 24 25 26 26 26 26 26 26 26 27 27 27 28 29 29
21 22 22 23 23 23 22 23 23 23 24 24 23 23 23 23 23 23 22 22 22 22 23 24 24 23 23 24 25 25 25 26 25 25 25 26 26 26 27 27 27 28 28
22 22 22 23 23 23 23 23 24 24 24 24 24 24 23 23 23 23 23 23 23 23 24 24 25 25 25 25 25 26 26 26 26 25 25 25 25 26 26 27 27 27 28
22 23 23 23 24 24 24 24 24 24 25 25 24 24 23 23 24 24 24 24 24 24 25 25 25 25 25 25 25 26 26 26 26 25 26 26 26 26 26 27 27 27 28
23 23 24 24 24 25 25 25 24 25 25 25 25 24 24 25 25 25 25 25 25 25 25 25 25 25 25 25 25 26 26 26 26 26 26 26 26 26 27 26 26 27 27
25 24 24 25 25 25 25 25 25 25 25 25 25 25 25 25 26 26 26 26 26 26 26 26 26 26 27 26 26 26 27 26 26 26 26 26 26 27 27 26 26 26 26
25 25 25 25 25 25 25 26 26 25 25 25 25 25 25 25 26 26 26 26 26 26 26 26 26 26 27 27 27 26 26 26 25 25 25 25 25 26 26 25 25 25 25
25 25 25 25 25 25 26 26 26 26 25 26 25 25 25 26 26 26 26 26 26 26 26 26 27 27 27 27 26 26 26 25 25 25 25 24 25 25 24 24 24 24 24
24 24 24 24 25 25 26 26 25 25 26 26 25 26 26 26 27 27 26 26 26 26 26 27 27 27 27 27 26 26 25 25 25 24 23 23 23 23 22 22 22 22 22
24 24 25 25 25 25 25 25 25 25 26 26 26 26 26 26 27 26 26 26 26 25 25 26 26 26 26 26 25 24 24 24 23 22 22 22 22 21 21 21 21 22 21
25 25 25 25 25 26 26 26 26 26 27 26 26 26 27 27 26 26 26 26 25 25 25 25 25 25 25 25 25 24 24 24 23 22 22 22 22 22 22 21 21 21 21
26 26 25 26 26 27 27 27 28 27 27 27 26 26 27 27 26 26 26 25 25 25 25 25 25 25 25 25 25 24 24 23 22 23 23 22 22 22 22 22 21 20 20
26 26 26 26 27 27 27 28 28 27 27 26 26 26 26 26 26 26 25 25 25 25 25 25 25 25 25 25 24 24 23 23 23 22 22 22 21 22 22 21 20 20 19
26 27 27 27 27 27 27 28 28 27 26 26 27 27 27 27 26 26 25 25 25 25 24 25 25 25 25 24 24 24 24 24 23 22 22 21 21 21 21 21 20 20 19
27 27 28 28 28 28 28 28 27 27 27 27 27 27 27 27 26 25 25 24 25 25 25 24 24 24 24 24 24 24 23 23 22 22 21 21 21 21 21 20 20 20 20
27 27 27 27 27 27 27 27 27 27 27 27 27 26 25 25 24 24 25 25 25 25 25 25 25 24 24 24 23 23 22 21 21 21 21 20 20 20 20 20 20 20 20
27 27 27 26 27 27 27 27 26 26 26 27 26 25 25 25 25 25 25 25 25 25 25 24 24 24 23 23 22 22 21 20 20 20 20 20 20 20 20 20 20 20 20
27 27 26 26 27 26 26 26 25 26 26 26 25 25 25 25 25 25 25 25 25 24 24 24 24 24 23 22 21 20 20 20 20 20 19 19 20 20 20 20 20 20 20
27 26 26 26 27 26 26 25 25 25 25 25 25 25 25 26 26 26 25 25 25 24 24 24 24 23 23 22 21 20 20 20 20 20 20 19 19 18 19 19 20 19 19
27 27 26 25 25 25 25 24 24 25 25 25 25 25 25 25 25 25 25 25 25 25 25 24 23 22 22 21 21 21 20 20 20 20 19 19 18 19 19 19 19 19 19
Wind_Direction
311 312 312 312 311 310 309 310 308 304 304 303 303 304 303 302 302 301 299 297 296 295 293 291 288 286 283 281 279 277 275 272 272 272 273 271 270 271 271 272 271 270 270
308 308 308 308 307 305 307 308 308 305 302 302 301 299 298 297 297 299 299 297 294 292 293 292 289 287 285 283 283 280 278 276 275 274 274 273 272 272 272 272 270 270 269
305 306 307 306 305 305 306 306 304 303 302 302 301 299 298 298 298 297 296 295 292 291 290 289 289 288 288 286 285 284 283 282 279 276 274 274 273 273 272 272 271 270 269
304 306 306 305 305 305 305 305 305 303 303 303 302 300 301 300 298 296 293 293 291 290 290 288 288 288 288 288 287 285 285 285 283 281 277 275 274 274 273 272 272 270 269
304 304 305 304 305 306 307 307 307 305 302 304 304 302 301 301 300 298 293 292 292 292 291 289 288 287 287 288 288 287 286 287 285 283 280 277 276 275 273 273 272 271 270
301 301 303 304 306 306 306 306 308 307 307 307 308 305 301 301 302 300 299 298 293 291 290 290 289 287 286 287 288 288 288 287 287 286 283 280 279 278 278 277 274 272 270
300 302 303 304 304 304 303 303 304 306 305 305 305 305 304 303 303 304 301 300 296 293 292 292 292 290 288 288 287 287 289 288 287 287 285 283 283 281 280 281 277 273 271
303 304 305 305 304 303 302 300 300 303 305 304 302 304 304 304 303 304 302 300 298 296 295 294 293 291 289 289 290 291 290 288 289 289 287 286 284 284 284 282 281 277 274
304 305 306 306 304 302 300 300 300 301 303 303 303 302 303 302 302 301 301 301 300 297 295 294 294 294 293 292 292 293 292 290 289 288 287 286 284 284 284 283 282 281 279
304 304 305 304 303 302 301 300 300 300 302 302 301 303 304 303 302 302 301 299 299 299 297 296 295 294 294 294 294 294 294 293 290 289 288 286 285 284 284 283 281 281 281
302 304 304 304 302 301 300 300 300 300 301 301 300 301 301 301 300 300 300 298 297 298 298 297 296 295 295 295 295 295 294 293 292 289 288 286 285 285 284 283 282 281 280
300 302 304 303 303 302 301 301 301 301 301 301 302 302 302 302 301 300 299 298 298 297 297 297 297 296 296 297 296 295 293 294 293 291 289 287 286 284 283 282 283 282 280
300 300 302 302 302 302 302 303 302 302 303 302 302 302 302 303 302 301 300 298 298 297 297 297 297 297 297 296 296 294 293 293 293 292 290 288 287 286 283 283 284 283 282
301 301 301 301 301 302 301 300 301 302 303 303 303 304 303 303 303 303 303 301 298 296 296 296 296 297 298 297 296 294 293 292 293 292 290 288 287 285 284 284 285 285 282
301 303 302 302 301 302 301 301 302 304 305 305 304 304 303 304 305 305 304 303 300 299 298 298 297 297 298 300 298 296 295 293 292 290 289 287 285 284 284 284 285 286 283
298 300 301 301 301 301 301 301 302 303 304 304 305 304 303 303 304 304 304 303 302 301 299 299 298 299 299 301 300 297 296 294 292 290 288 286 285 284 284 284 285 286 284
297 298 299 299 300 301 302 303 303 302 302 303 304 305 304 304 304 304 303 303 303 302 301 300 300 300 300 300 300 298 296 295 291 289 287 286 285 285 285 284 285 284 283
295 299 300 299 299 300 301 302 302 303 302 302 303 304 305 305 304 304 304 304 303 302 301 300 300 300 300 300 299 298 297 295 292 290 287 286 285 284 283 283 284 284 283
297 299 300 300 301 300 300 301 302 302 302 302 302 302 304 304 303 303 304 304 303 302 302 301 300 300 300 299 297 298 297 295 292 290 289 287 285 285 283 280 280 281 280
294 296 297 299 299 300 301 301 301 301 301 301 302 302 302 303 303 304 304 304 303 302 302 302 301 301 299 298 298 298 298 296 293 291 289 288 286 285 283 280 278 279 277
293 293 295 298 299 299 300 301 301 300 300 300 300 301 301 302 303 304 305 303 303 303 302 302 301 300 300 298 297 297 297 297 295 292 291 288 286 284 282 281 279 276 277
293 294 295 297 300 300 300 299 299 299 299 299 299 300 301 302 303 303 304 304 303 303 302 301 301 301 301 300 296 296 296 296 295 293 291 289 287 285 282 281 280 277 277
293 294 295 297 300 301 301 300 299 300 300 300 301 301 302 302 302 302 304 305 304 303 303 301 301 301 301 301 298 296 296 296 297 295 292 289 288 285 282 281 280 280 278
293 294 294 295 299 301 301 300 300 300 301 300 299 301 301 301 300 301 302 304 303 303 303 302 301 300 300 300 298 297 297 297 297 296 294 291 290 288 283 280 279 279 277
292 293 293 295 297 299 299 299 300 301 302 302 302 302 301 300 300 300 302 303 304 303 301 300 299 298 297 298 296 295 296 296 295 294 293 291 291 291 287 283 280 278 275
293 293 293 295 296 297 298 299 301 302 302 303 304 304 303 302 302 302 302 304 305 303 302 299 298 296 296 297 297 296 295 295 293 291 292 291 291 290 289 286 284 279 274
Height
5863 5861 5859 5857 5854 5852 5850 5848 5846 5844 5842 5840 5838 5836 5834 5832 5830 5828 5826 5824 5823 5821 5819 5817 5816 5815 5814 5813 5813 5812 5811 5811 5810 5810 5809 5808 5808 5808 5807 5807 5806 5806 5806
5860 5858 5855 5853 5851 5849 5847 5844 5842 5840 5838 5836 5833 5831 5829 5827 5825 5823 5821 5819 5818 5816 5814 5813 5811 5810 5809 5808 5807 5806 5805 5804 5804 5803 5802 5801 5800 5800 5799 5799 5798 5798 5797
5856 5854 5852 5850 5847 5845 5843 5840 5838 5836 5833 5831 5829 5827 5825 5822 5820 5818 5816 5814 5813 5811 5809 5807 5806 5805 5803 5802 5801 5799 5798 5797 5796 5795 5794 5793 5792 5791 5791 5790 5790 5789 5789
5853 5850 5848 5846 5843 5841 5838 5836 5833 5831 5829 5827 5824 5822 5820 5818 5815 5813 5811 5809 5807 5805 5803 5802 5800 5799 5797 5796 5794 5793 5792 5790 5789 5788 5786 5785 5784 5783 5782 5782 5781 5780 5780
5849 5846 5844 5842 5839 5836 5834 5831 5829 5827 5824 5822 5819 5817 5815 5813 5810 5808 5805 5803 5802 5800 5798 5796 5794 5793 5791 5790 5788 5786 5785 5783 5782 5780 5779 5777 5776 5775 5774 5773 5772 5771 5771
5845 5842 5840 5837 5834 5832 5829 5827 5824 5822 5820 5817 5815 5812 5810 5808 5805 5802 5800 5798 5796 5794 5791 5789 5788 5786 5785 5783 5781 5780 5778 5776 5774 5772 5771 5769 5768 5767 5766 5764 5763 5763 5762
5840 5838 5835 5832 5829 5827 5824 5822 5820 5817 5815 5812 5810 5807 5804 5802 5800 5797 5794 5792 5789 5787 5785 5783 5781 5779 5778 5776 5774 5773 5771 5768 5767 5765 5763 5761 5760 5759 5758 5756 5754 5753 5753
5835 5832 5830 5827 5824 5821 5819 5817 5814 5812 5809 5807 5804 5802 5799 5796 5794 5791 5789 5786 5784 5781 5779 5777 5774 5772 5770 5769 5767 5765 5763 5761 5759 5757 5755 5754 5752 5750 5749 5748 5746 5745 5744
5830 5827 5825 5822 5819 5816 5813 5811 5809 5806 5804 5801 5799 5796 5793 5790 5788 5785 5783 5780 5777 5775 5772 5770 5768 5765 5763 5761 5759 5757 5754 5752 5750 5749 5747 5745 5744 5742 5741 5739 5738 5736 5735
5825 5822 5819 5816 5813 5811 5808 5805 5803 5800 5798 5795 5793 5790 5787 5785 5782 5779 5776 5774 5771 5768 5766 5763 5761 5759 5756 5754 5751 5749 5746 5744 5742 5741 5739 5737 5735 5734 5732 5730 5729 5727 5726
5819 5816 5813 5811 5808 5805 5802 5799 5797 5794 5792 5789 5787 5784 5781 5778 5775 5773 5770 5767 5764 5762 5759 5756 5754 5751 5749 5746 5743 5741 5739 5736 5734 5732 5730 5728 5727 5725 5723 5721 5720 5718 5716
5813 5811 5808 5805 5802 5799 5796 5793 5790 5788 5785 5782 5780 5777 5774 5771 5768 5765 5763 5760 5757 5754 5752 5749 5746 5744 5741 5738 5735 5733 5731 5728 5726 5724 5722 5720 5718 5716 5714 5713 5711 5709 5707
5807 5804 5801 5798 5796 5793 5790 5787 5784 5781 5778 5775 5772 5770 5767 5764 5761 5758 5755 5752 5750 5747 5744 5741 5738 5736 5733 5730 5728 5725 5723 5720 5718 5716 5714 5711 5709 5707 5705 5704 5702 5700 5699
5800 5797 5794 5792 5789 5786 5783 5780 5777 5774 5771 5768 5765 5762 5759 5756 5753 5750 5747 5744 5742 5739 5736 5733 5731 5728 5725 5722 5720 5717 5715 5712 5710 5708 5705 5703 5701 5699 5697 5696 5694 5692 5691
5794 5791 5788 5785 5783 5780 5777 5774 5771 5768 5764 5761 5758 5755 5752 5749 5746 5743 5740 5737 5734 5731 5728 5725 5723 5720 5717 5714 5711 5708 5706 5704 5701 5699 5697 5695 5693 5691 5690 5688 5686 5684 5683
5787 5785 5782 5779 5776 5773 5770 5767 5764 5761 5758 5755 5751 5748 5745 5742 5739 5736 5733 5729 5726 5723 5720 5717 5715 5712 5709 5706 5703 5700 5698 5695 5693 5691 5689 5687 5685 5683 5682 5680 5679 5677 5675
5781 5778 5775 5772 5769 5767 5764 5761 5758 5754 5751 5748 5744 5741 5738 5735 5731 5728 5725 5722 5719 5716 5713 5710 5707 5704 5701 5698 5696 5693 5690 5688 5686 5683 5681 5679 5678 5676 5674 5673 5671 5669 5668
5773 5771 5768 5765 5762 5760 5757 5753 5750 5747 5744 5740 5737 5734 5731 5727 5724 5721 5718 5715 5711 5708 5705 5702 5699 5697 5694 5691 5688 5685 5682 5680 5678 5676 5674 5672 5670 5668 5667 5665 5664 5662 5661
5766 5763 5761 5758 5755 5752 5749 5746 5743 5740 5736 5733 5730 5727 5724 5720 5717 5714 5710 5707 5704 5701 5698 5695 5692 5689 5686 5683 5680 5678 5675 5672 5670 5668 5666 5664 5662 5661 5659 5658 5657 5655 5654
5759 5756 5753 5751 5748 5745 5741 5738 5735 5732 5729 5726 5723 5719 5716 5713 5710 5707 5703 5700 5697 5694 5691 5688 5685 5682 5679 5676 5673 5670 5668 5665 5663 5661 5659 5657 5655 5653 5652 5650 5649 5648 5647
5751 5748 5746 5743 5740 5737 5734 5731 5727 5724 5721 5718 5715 5712 5709 5706 5702 5699 5696 5693 5690 5687 5684 5681 5677 5674 5671 5668 5666 5663 5660 5658 5655 5653 5651 5649 5648 5646 5644 5643 5642 5641 5640
5743 5740 5738 5735 5732 5729 5726 5723 5720 5717 5714 5711 5708 5705 5701 5698 5695 5692 5689 5686 5683 5680 5676 5673 5670 5667 5664 5661 5658 5656 5653 5651 5648 5646 5644 5642 5640 5639 5638 5636 5635 5634 5633
5735 5732 5729 5727 5724 5721 5718 5715 5712 5709 5706 5703 5700 5697 5694 5691 5688 5685 5682 5679 5675 5672 5669 5666 5663 5660 5657 5654 5651 5649 5646 5644 5641 5639 5637 5635 5634 5632 5631 5630 5629 5628 5627
5727 5724 5721 5719 5717 5714 5711 5708 5705 5702 5698 5696 5693 5690 5687 5684 5681 5678 5675 5671 5668 5665 5662 5659 5656 5653 5650 5647 5644 5642 5640 5637 5635 5632 5630 5628 5627 5625 5624 5623 5622 5621 5620
5718 5716 5714 5711 5709 5706 5703 5700 5698 5695 5692 5689 5686 5683 5680 5677 5673 5670 5667 5664 5661 5657 5654 5652 5649 5646 5643 5640 5638 5635 5633 5631 5628 5626 5624 5622 5620 5619 5617 5616 5615 5614 5613
5710 5708 5706 5703 5701 5698 5696 5693 5690 5688 5685 5682 5678 5675 5672 5669 5666 5663 5660 5657 5653 5650 5647 5644 5641 5638 5636 5633 5631 5628 5626 5624 5622 5620 5617 5616 5614 5613 5611 5609 5608 5607 5606